Flag for Puerto Rico Weather past 2 weeks in Caguas, Puerto Rico

Now
79 °F

Broken clouds.


Feels Like: 82 °F
Forecast: 72 / 86 °F
Wind: 13 mph from East

Location: Luis Munoz Marin

Current Time: Feb 28, 2015 at 10:44:46 AM

Latest Report: Feb 28, 2015 at 9:56 AM


Visibility: 10 mi

Pressure: 30.15 "Hg

Humidity: 82%

Dew point: 73 °F

Location of CaguasLocation

Historic Weather in Caguas — Graph

°F

Caguas temperature yesterday

Maximum temperature yesterday: 85 °F (at 11:56 AM)
Minimum temperature yesterday: 73 °F (at 3:56 AM)
Average temperature yesterday: 78 °F

Past Weeks' High & Low Weather Summary

 TemperatureHumidityPressure
High88 °F (Feb 19, 12:56 PM)100% (Feb 14, 1:56 PM)30.14 "Hg (Feb 14, 1:56 PM)
Low72 °F (Feb 23, 5:56 AM)53% (Feb 26, 2:56 PM)29.92 "Hg (Feb 20, 4:56 AM)
Average78 °F81%30.03 "Hg
* Reported Feb 13 8:56 AM — Feb 28 8:56 AM, Caguas, Weather by CustomWeather, © 2015

Note: Actual official high and low records may vary slightly from our data, if they occured in-between our weather recording intervals... More about our weather records

Advertising

Caguas weather history for previous 24 hours

 ConditionsComfort  
Time TempWeatherWind HumidityBarometerVisibility
8:56 AM
Sat, Feb 28
78 °FBroken clouds.18 mph90%30.14 "Hg10 mi
7:56 AM76 °FBroken clouds.12 mph91%30.12 "Hg10 mi
6:56 AM75 °FLight rain. Partly cloudy.6 mph94%30.10 "Hg8 mi
5:56 AM76 °FPartly cloudy.6 mph88%30.08 "Hg10 mi
4:56 AM76 °FPartly cloudy.15 mph88%30.06 "Hg10 mi
3:56 AM76 °FPartly cloudy.12 mph88%30.06 "Hg10 mi
2:56 AM75 °FLight rain. Partly cloudy.10 mph90%30.06 "Hg10 mi
1:56 AM76 °FPassing clouds.12 mph88%30.08 "Hg10 mi
12:56 AM77 °FPassing clouds.5 mph79%30.09 "Hg10 mi
11:56 PM
Fri, Feb 27
75 °FPassing clouds.5 mph85%30.10 "Hg10 mi
10:56 PM77 °FPassing clouds.8 mph79%30.10 "Hg10 mi
9:56 PM78 °FPassing clouds.12 mph79%30.10 "Hg10 mi
8:56 PM78 °FPassing clouds.13 mph82%30.08 "Hg10 mi
7:56 PM78 °FPassing clouds.6 mph79%30.06 "Hg10 mi
6:56 PM78 °FScattered clouds.7 mph82%30.05 "Hg10 mi
5:56 PM78 °FScattered clouds.9 mph82%30.04 "Hg10 mi
4:56 PM77 °FBroken clouds.10 mph82%30.03 "Hg10 mi
3:56 PM81 °FScattered clouds.18 mph79%30.02 "Hg10 mi
2:56 PM82 °FScattered clouds.18 mph70%30.03 "Hg10 mi
1:56 PM84 °FScattered clouds.20 mph65%30.04 "Hg10 mi
12:56 PM85 °FScattered clouds.16 mph61%30.06 "Hg10 mi
11:56 AM85 °FScattered clouds.21 mph55%30.08 "Hg10 mi
10:56 AM84 °FPassing clouds.18 mph61%30.10 "Hg10 mi
Weather by CustomWeather, © 2015

See weather overviewHow to use our weather pages